CDT,Max TemperatureF,Mean TemperatureF,Min TemperatureF,Max Dew PointF,MeanDew PointF,Min DewpointF,Max Humidity, Mean Humidity, Min Humidity, Max Sea Level PressureIn, Mean Sea Level PressureIn, Min Sea Level PressureIn, Max VisibilityMiles, Mean VisibilityMiles, Min VisibilityMiles, Max Wind SpeedMPH, Mean Wind SpeedMPH, Max Gust SpeedMPH,PrecipitationIn, CloudCover, Events, WindDirDegrees
2013-5-1,82,66,50,59,51,41,72,56,37,30.15,29.98,29.87,10,10,10,18,8,26,0.00,3,Thunderstorm,145
2013-5-2,46,39,32,41,35,32,100,84,71,30.33,30.27,30.13,10,8,2,20,14,29,0.18,8,Rain-Snow-Thunderstorm,338
2013-5-3,33,32,32,32,32,32,100,96,93,30.27,30.08,29.90,10,7,2,14,8,23,0.11,8,Rain-Snow,323
2013-5-4,44,38,32,39,34,32,100,85,70,30.04,29.93,29.83,10,8,2,8,3,,0.03,7,Snow,10
2013-5-5,60,51,42,50,46,39,100,83,68,30.10,30.05,30.01,10,9,2,14,4,18,0.00,7,,303
2013-5-6,68,59,50,54,49,46,94,78,52,30.10,30.06,30.02,10,9,4,12,7,,0.00,4,,310
2013-5-7,73,60,46,54,50,45,94,67,38,30.09,30.04,29.99,10,9,1,6,2,,0.00,0,,256
2013-5-8,71,61,51,55,53,50,94,72,53,30.05,29.98,29.90,10,10,10,16,4,18,0.00,3,Rain-Thunderstorm,152
2013-5-9,73,66,59,61,57,54,94,78,50,29.93,29.89,29.86,10,10,5,16,6,23,0.22,5,Rain-Thunderstorm,217
2013-5-10,62,56,50,57,52,46,100,84,63,30.05,29.99,29.90,10,10,1,13,4,,0.00,4,,321
2013-5-11,62,52,42,50,37,30,100,59,30,30.24,30.13,30.04,10,9,1,21,6,26,0.00,0,,316
2013-5-12,62,48,33,37,31,23,93,49,27,30.29,30.23,30.15,10,10,10,10,3,,0.00,1,,299
2013-5-13,75,60,44,54,45,36,87,61,38,30.18,30.10,29.96,10,10,10,12,5,18,0.00,1,,156
2013-5-14,87,74,60,57,53,48,77,51,25,29.95,29.88,29.82,10,10,10,21,10,30,0.00,0,,196
2013-5-15,82,72,62,64,58,52,83,60,47,29.92,29.88,29.84,10,10,10,18,11,24,0.00,0,,193
2013-5-16,78,68,59,63,59,55,94,75,51,29.92,29.88,29.83,10,10,4,13,4,17,0.01,2,Rain,139
2013-5-17,78,66,55,61,58,54,94,75,51,29.96,29.91,29.87,10,10,2,6,2,,0.00,4,,136
2013-5-18,82,70,59,68,63,57,100,76,51,29.94,29.88,29.78,10,10,7,13,4,20,0.00,2,,131
2013-5-19,86,72,59,68,62,55,94,71,45,29.86,29.73,29.57,10,10,2,23,9,34,0.08,4,Rain-Thunderstorm,156
2013-5-20,75,67,59,66,60,55,100,87,69,29.85,29.73,29.65,10,10,4,20,8,28,0.02,4,Rain-Thunderstorm,170
2013-5-21,69,64,59,59,56,52,94,78,64,29.80,29.74,29.68,10,10,10,12,7,,0.01,1,,197
2013-5-22,64,58,53,55,51,50,94,74,59,29.94,29.82,29.73,10,10,10,13,6,18,0.01,5,,243
2013-5-23,66,58,51,55,51,46,94,76,64,30.23,30.10,29.93,10,10,10,12,5,17,0.01,5,,324
2013-5-24,71,58,46,54,47,43,100,66,38,30.37,30.26,30.18,10,9,2,16,5,22,0.00,1,,110
2013-5-25,78,66,55,64,56,45,83,66,55,30.20,30.13,30.03,10,10,5,15,8,21,0.01,2,Rain-Thunderstorm,158
2013-5-26,82,73,64,68,63,61,94,73,54,30.09,30.02,29.93,10,10,10,17,7,22,0.00,3,Rain,160
2013-5-27,77,68,60,68,63,57,100,81,69,30.02,29.85,29.72,10,10,0,23,9,44,0.01,5,Rain-Thunderstorm,120
2013-5-28,77,73,69,68,65,63,94,80,69,29.84,29.76,29.68,10,10,10,17,9,26,0.01,6,Rain-Thunderstorm,162
2013-5-29,80,72,64,66,63,59,88,70,54,29.88,29.80,29.69,10,10,7,22,10,40,0.00,4,Rain-Thunderstorm,149
2013-5-30,71,66,60,64,60,59,94,87,73,29.79,29.73,29.65,10,10,3,21,11,29,0.01,5,Rain-Thunderstorm,162
2013-5-31,73,66,59,68,61,55,94,88,78,29.81,29.74,29.68,10,10,1,18,6,30,0.01,5,Rain-Thunderstorm,115